Starlink 11399

operational
NORAD ID: 63063 Int'l Des: 2025-035 Owner: SPXS Country: US Constellation: starlink
LEOCIRCULAR

Über Starlink 11399

Beschreibung wird geladen...

Live-Position

3D-Globus wird geladen...

Nächste Überflüge

Höhenverlauf

Altitude vs Time

uPlot chart will show altitude changes over time

Zweizeiliger Elementsatz

1 63063U 25035M 25305.63033375 .00243025 00000-0 18312-2 0 9991
2 63063 42.9988 66.9516 0000613 227.2243 132.8574 15.70986890 41081
Epoch: 1. Nov. 2025 • Age: 8 hours

Aktueller Status

Höhe 354.5 km
Geschwindigkeit 7.70 km/s
Subsatellitenpunkt 9.69°N, 159.01°W
Startdatum 21. Feb. 2025
Alter 0.6 years
Typ internet

Technische Details

Klassifizierung Payload
Masse 960.00 kg
Trockenmasse 910.00 kg
Gesamtmasse 960.00 kg
Länge 0.30 m
Durchmesser 4.10 m
Spannweite 29.00 m
Form Box + pan
Hersteller SPXS
Bus-Typ Starlink V2MD
Phasenstatus In Orbit
Besitzer/Staat SPXS/US

Große Konstellationen

Loading constellations...